| time (UTC) | temp F | wind direction | speed MPH | gust MPH | rain 1hr in | rain 24hr in | rain mn in | humidity % | barometer mb |
| 20260905231205 | 85 | 358 | 14.0 | 23.0 | 0.00 | 0.00 | 0.00 | 26 | 1015.0 |
| 20260905230704 | 86 | 3 | 13.0 | 25.0 | 0.00 | 0.00 | 0.00 | 26 | 1015.0 |
| 20260905230204 | 87 | 3 | 14.0 | 26.0 | 0.00 | 0.00 | 0.00 | 26 | 1014.9 |
| 20260905225705 | 87 | 16 | 15.0 | 26.0 | 0.00 | 0.00 | 0.00 | 26 | 1014.9 |
| 20260905225204 | 87 | 8 | 15.0 | 26.0 | 0.00 | 0.00 | 0.00 | 26 | 1014.9 |
| 20260905224704 | 86 | 353 | 15.0 | 22.0 | 0.00 | 0.00 | 0.00 | 26 | 1015.0 |
| 20260905224203 | 87 | 13 | 14.0 | 21.0 | 0.00 | 0.00 | 0.00 | 26 | 1015.0 |
| 20260905223704 | 87 | 348 | 14.0 | 24.0 | 0.00 | 0.00 | 0.00 | 26 | 1015.0 |
| 20260905223205 | 87 | 353 | 15.0 | 26.0 | 0.00 | 0.00 | 0.00 | 27 | 1015.1 |
| 20260905222704 | 87 | 12 | 15.0 | 26.0 | 0.00 | 0.00 | 0.00 | 27 | 1015.0 |
| 20260905222204 | 87 | 358 | 14.0 | 27.0 | 0.00 | 0.00 | 0.00 | 27 | 1015.1 |
| 20260905221704 | 87 | 12 | 14.0 | 27.0 | 0.00 | 0.00 | 0.00 | 27 | 1015.1 |
| 20260905220704 | 87 | 344 | 15.0 | 24.0 | 0.00 | 0.00 | 0.00 | 28 | 1015.2 |
| 20260905220204 | 87 | 353 | 15.0 | 24.0 | 0.00 | 0.00 | 0.00 | 27 | 1015.2 |
| 20260905215705 | 87 | 19 | 16.0 | 24.0 | 0.00 | 0.00 | 0.00 | 27 | 1015.2 |
| 20260905215205 | 87 | 11 | 15.0 | 24.0 | 0.00 | 0.00 | 0.00 | 27 | 1015.3 |
| 20260905214205 | 87 | 15 | 12.0 | 23.0 | 0.00 | 0.00 | 0.00 | 25 | 1015.5 |
| 20260905213706 | 88 | 20 | 8.0 | 23.0 | 0.00 | 0.00 | 0.00 | 24 | 1015.4 |
| 20260905213204 | 88 | 42 | 7.0 | 23.0 | 0.00 | 0.00 | 0.00 | 17 | 1015.5 |
| 20260905212704 | 87 | 70 | 9.0 | 18.0 | 0.00 | 0.00 | 0.00 | 20 | 1015.4 |
| 20260905212204 | 87 | 353 | 9.0 | 15.0 | 0.00 | 0.00 | 0.00 | 21 | 1015.5 |
| 20260905211704 | 89 | 358 | 5.0 | 14.0 | 0.00 | 0.00 | 0.00 | 22 | 1015.6 |
| 20260905211204 | 89 | 358 | 6.0 | 14.0 | 0.00 | 0.00 | 0.00 | 17 | 1015.5 |
| 20260905210704 | 89 | 80 | 5.0 | 16.0 | 0.00 | 0.00 | 0.00 | 17 | 1015.5 |
| 20260905210205 | 88 | 101 | 4.0 | 16.0 | 0.00 | 0.00 | 0.00 | 19 | 1015.3 |
| 20260905205705 | 88 | 83 | 6.0 | 16.0 | 0.00 | 0.00 | 0.00 | 18 | 1015.6 |
| 20260905205205 | 87 | 328 | 6.0 | 13.0 | 0.00 | 0.00 | 0.00 | 18 | 1015.3 |
| 20260905204704 | 87 | 349 | 6.0 | 13.0 | 0.00 | 0.00 | 0.00 | 22 | 1015.5 |
| 20260905202704 | 84 | 302 | 10.0 | 16.0 | 0.00 | 0.00 | 0.00 | 19 | 1016.0 |
| 20260905202204 | 84 | 252 | 10.0 | 16.0 | 0.00 | 0.00 | 0.00 | 19 | 1016.0 |
| 20260905201704 | 84 | 257 | 9.0 | 14.0 | 0.00 | 0.00 | 0.00 | 18 | 1016.1 |
| 20260905201204 | 84 | 282 | 7.0 | 14.0 | 0.00 | 0.00 | 0.00 | 18 | 1016.2 |
| 20260905200704 | 85 | 254 | 8.0 | 19.0 | 0.00 | 0.00 | 0.00 | 18 | 1016.2 |
| 20260905200206 | 85 | 293 | 10.0 | 19.0 | 0.00 | 0.00 | 0.00 | 18 | 1016.2 |
| 20260905194704 | 84 | 275 | 7.0 | 22.0 | 0.00 | 0.00 | 0.00 | 18 | 1016.3 |
| 20260905194205 | 83 | 337 | 8.0 | 22.0 | 0.00 | 0.00 | 0.00 | 18 | 1016.3 |
| 20260905193204 | 84 | 132 | 4.0 | 14.0 | 0.00 | 0.00 | 0.00 | 19 | 1016.2 |
| 20260905192704 | 84 | 25 | 3.0 | 14.0 | 0.00 | 0.00 | 0.00 | 18 | 1016.4 |
| 20260905191204 | 82 | 224 | 4.0 | 11.0 | 0.00 | 0.00 | 0.00 | 20 | 1016.5 |
| 20260905190704 | 82 | 358 | 5.0 | 12.0 | 0.00 | 0.00 | 0.00 | 19 | 1016.7 |
| 20260905190206 | 82 | 270 | 4.0 | 12.0 | 0.00 | 0.00 | 0.00 | 19 | 1016.7 |
| 20260905185704 | 82 | 305 | 5.0 | 11.0 | 0.00 | 0.00 | 0.00 | 19 | 1016.7 |
| 20260905184704 | 82 | 301 | 5.0 | 11.0 | 0.00 | 0.00 | 0.00 | 20 | 1016.7 |
| 20260905184205 | 82 | 305 | 4.0 | 8.0 | 0.00 | 0.00 | 0.00 | 20 | 1017.0 |
| 20260905183204 | 82 | 333 | 3.0 | 8.0 | 0.00 | 0.00 | 0.00 | 22 | 1017.0 |
| 20260905182704 | 81 | 333 | 4.0 | 8.0 | 0.00 | 0.00 | 0.00 | 21 | 1017.1 |
| 20260905182205 | 81 | 297 | 3.0 | 8.0 | 0.00 | 0.00 | 0.00 | 21 | 1017.1 |
| 20260905181704 | 81 | 113 | 3.0 | 7.0 | 0.00 | 0.00 | 0.00 | 22 | 1017.0 |
| 20260905181204 | 80 | 113 | 3.0 | 7.0 | 0.00 | 0.00 | 0.00 | 23 | 1017.1 |
| 20260905180704 | 80 | 114 | 3.0 | 6.0 | 0.00 | 0.00 | 0.00 | 24 | 1017.0 |
| 20260905180204 | 79 | 114 | 2.0 | 4.0 | 0.00 | 0.00 | 0.00 | 24 | 1017.0 |
| 20260905175705 | 79 | 111 | 2.0 | 4.0 | 0.00 | 0.00 | 0.00 | 24 | 1017.1 |
| 20260905175204 | 79 | 111 | 2.0 | 4.0 | 0.00 | 0.00 | 0.00 | 24 | 1017.1 |
| 20260905174706 | 78 | 111 | 2.0 | 6.0 | 0.00 | 0.00 | 0.00 | 26 | 1017.1 |
| 20260905173704 | 76 | 99 | 3.0 | 7.0 | 0.00 | 0.00 | 0.00 | 26 | 1017.1 |
| 20260905173204 | 76 | 96 | 3.0 | 7.0 | 0.00 | 0.00 | 0.00 | 26 | 1017.0 |
| 20260905172704 | 76 | 96 | 2.0 | 10.0 | 0.00 | 0.00 | 0.00 | 26 | 1017.1 |
| 20260905172204 | 76 | 94 | 3.0 | 10.0 | 0.00 | 0.00 | 0.00 | 27 | 1017.1 |
| 20260905171704 | 76 | 94 | 4.0 | 9.0 | 0.00 | 0.00 | 0.00 | 27 | 1017.1 |
| 20260905171204 | 75 | 84 | 3.0 | 9.0 | 0.00 | 0.00 | 0.00 | 27 | 1017.0 |
| 20260905170704 | 74 | 84 | 4.0 | 10.0 | 0.00 | 0.00 | 0.00 | 28 | 1017.0 |
| 20260905165704 | 74 | 91 | 5.0 | 10.0 | 0.00 | 0.00 | 0.00 | 28 | 1017.0 |
| 20260905165205 | 74 | 89 | 3.0 | 9.0 | 0.00 | 0.00 | 0.00 | 28 | 1017.0 |
| 20260905164704 | 74 | 91 | 3.0 | 9.0 | 0.00 | 0.00 | 0.00 | 28 | 1017.0 |
| 20260905164204 | 73 | 92 | 3.0 | 8.0 | 0.00 | 0.00 | 0.00 | 28 | 1017.0 |
| 20260905162704 | 72 | 95 | 4.0 | 9.0 | 0.00 | 0.00 | 0.00 | 29 | 1016.8 |
| 20260905162204 | 72 | 103 | 4.0 | 10.0 | 0.00 | 0.00 | 0.00 | 30 | 1016.7 |
| 20260905161204 | 72 | 95 | 6.0 | 10.0 | 0.00 | 0.00 | 0.00 | 30 | 1016.6 |
| 20260905160704 | 72 | 105 | 4.0 | 6.0 | 0.00 | 0.00 | 0.00 | 30 | 1016.5 |
| 20260905155204 | 71 | 328 | 3.0 | 5.0 | 0.00 | 0.00 | 0.00 | 31 | 1016.4 |
| 20260905154704 | 70 | 327 | 3.0 | 5.0 | 0.00 | 0.00 | 0.00 | 33 | 1016.4 |
| 20260905154205 | 70 | 323 | 3.0 | 5.0 | 0.00 | 0.00 | 0.00 | 34 | 1016.4 |
| 20260905153704 | 70 | 323 | 3.0 | 5.0 | 0.00 | 0.00 | 0.00 | 33 | 1016.4 |
| 20260905153206 | 70 | 323 | 3.0 | 6.0 | 0.00 | 0.00 | 0.00 | 34 | 1016.4 |
| 20260905152704 | 69 | 323 | 3.0 | 6.0 | 0.00 | 0.00 | 0.00 | 33 | 1016.3 |
| 20260905152204 | 69 | 323 | 3.0 | 8.0 | 0.00 | 0.00 | 0.00 | 33 | 1016.2 |
| 20260905151704 | 68 | 323 | 4.0 | 8.0 | 0.00 | 0.00 | 0.00 | 35 | 1016.2 |
| 20260905151206 | 68 | 323 | 4.0 | 8.0 | 0.00 | 0.00 | 0.00 | 35 | 1016.1 |
| 20260905150705 | 68 | 319 | 4.0 | 6.0 | 0.00 | 0.00 | 0.00 | 35 | 1016.1 |
| 20260905150204 | 67 | 319 | 3.0 | 6.0 | 0.00 | 0.00 | 0.00 | 35 | 1016.1 |
| 20260905145704 | 67 | 319 | 3.0 | 6.0 | 0.00 | 0.00 | 0.00 | 36 | 1016.0 |
| 20260905145206 | 67 | 319 | 3.0 | 5.0 | 0.00 | 0.00 | 0.00 | 37 | 1016.0 |
| 20260905144205 | 65 | 319 | 3.0 | 5.0 | 0.00 | 0.00 | 0.00 | 39 | 1016.0 |
| 20260905143704 | 63 | 319 | 3.0 | 5.0 | 0.00 | 0.00 | 0.00 | 41 | 1016.1 |
| 20260905143206 | 62 | 319 | 3.0 | 5.0 | 0.00 | 0.00 | 0.00 | 46 | 1016.0 |
| 20260905142704 | 60 | 319 | 4.0 | 5.0 | 0.00 | 0.00 | 0.00 | 49 | 1016.0 |
| 20260905142204 | 60 | 319 | 4.0 | 8.0 | 0.00 | 0.00 | 0.00 | 49 | 1016.0 |
| 20260905141704 | 59 | 319 | 5.0 | 8.0 | 0.00 | 0.00 | 0.00 | 50 | 1016.0 |
| 20260905141205 | 59 | 319 | 5.0 | 8.0 | 0.00 | 0.00 | 0.00 | 51 | 1016.0 |
| 20260905140704 | 58 | 319 | 5.0 | 8.0 | 0.00 | 0.00 | 0.00 | 52 | 1016.0 |
| 20260905140205 | 57 | 319 | 4.0 | 5.0 | 0.00 | 0.00 | 0.00 | 53 | 1016.0 |
| 20260905135704 | 57 | 319 | 4.0 | 5.0 | 0.00 | 0.00 | 0.00 | 54 | 1015.9 |
| 20260905135206 | 56 | 319 | 4.0 | 5.0 | 0.00 | 0.00 | 0.00 | 55 | 1015.7 |
| 20260905134705 | 56 | 319 | 4.0 | 5.0 | 0.00 | 0.00 | 0.00 | 54 | 1015.6 |
| 20260905134204 | 57 | 319 | 4.0 | 5.0 | 0.00 | 0.00 | 0.00 | 54 | 1015.6 |
| 20260905133704 | 57 | 319 | 4.0 | 5.0 | 0.00 | 0.00 | 0.00 | 54 | 1015.6 |
| 20260905133206 | 57 | 319 | 4.0 | 5.0 | 0.00 | 0.00 | 0.00 | 54 | 1015.5 |
| 20260905132704 | 57 | 319 | 4.0 | 8.0 | 0.00 | 0.00 | 0.00 | 54 | 1015.3 |
| 20260905131704 | 56 | 319 | 5.0 | 8.0 | 0.00 | 0.00 | 0.00 | 54 | 1015.4 |
| 20260905131206 | 56 | 318 | 5.0 | 8.0 | 0.00 | 0.00 | 0.00 | 54 | 1015.3 |
| 20260905130704 | 56 | 318 | 5.0 | 6.0 | 0.00 | 0.00 | 0.00 | 55 | 1015.3 |
| 20260905130204 | 56 | 318 | 5.0 | 6.0 | 0.00 | 0.00 | 0.00 | 55 | 1015.3 |
| 20260905125704 | 56 | 318 | 5.0 | 6.0 | 0.00 | 0.00 | 0.00 | 56 | 1015.2 |
| 20260905125205 | 56 | 317 | 4.0 | 6.0 | 0.00 | 0.00 | 0.00 | 56 | 1015.3 |
| 20260905124704 | 57 | 317 | 4.0 | 5.0 | 0.00 | 0.00 | 0.00 | 55 | 1015.3 |
| 20260905124204 | 56 | 317 | 3.0 | 5.0 | 0.00 | 0.00 | 0.00 | 58 | 1015.2 |
| 20260905123204 | 55 | 317 | 3.0 | 4.0 | 0.00 | 0.00 | 0.00 | 60 | 1015.2 |
| 20260905122704 | 55 | 317 | 3.0 | 4.0 | 0.00 | 0.00 | 0.00 | 59 | 1015.3 |
| 20260905122204 | 54 | 317 | 3.0 | 5.0 | 0.00 | 0.00 | 0.00 | 60 | 1015.3 |
| 20260905121704 | 55 | 317 | 3.0 | 5.0 | 0.00 | 0.00 | 0.00 | 59 | 1015.2 |
| 20260905121204 | 55 | 317 | 3.0 | 5.0 | 0.00 | 0.00 | 0.00 | 59 | 1015.3 |
| 20260905120705 | 55 | 317 | 3.0 | 4.0 | 0.00 | 0.00 | 0.00 | 58 | 1015.3 |
| 20260905120204 | 55 | 317 | 3.0 | 4.0 | 0.00 | 0.00 | 0.00 | 58 | 1015.3 |
| 20260905115704 | 55 | 317 | 3.0 | 4.0 | 0.00 | 0.00 | 0.00 | 57 | 1015.3 |
| 20260905114704 | 55 | 317 | 2.0 | 5.0 | 0.00 | 0.00 | 0.00 | 56 | 1015.3 |
| 20260905114204 | 55 | 317 | 3.0 | 5.0 | 0.00 | 0.00 | 0.00 | 57 | 1015.3 |
| 20260905113704 | 55 | 317 | 3.0 | 5.0 | 0.00 | 0.00 | 0.00 | 56 | 1015.3 |
| 20260905113204 | 56 | 317 | 3.0 | 4.0 | 0.00 | 0.00 | 0.00 | 55 | 1015.3 |
| 20260905112705 | 56 | 317 | 3.0 | 4.0 | 0.00 | 0.00 | 0.00 | 54 | 1015.3 |
| 20260905112204 | 56 | 317 | 2.0 | 6.0 | 0.00 | 0.00 | 0.00 | 54 | 1015.3 |
| 20260905111204 | 56 | 317 | 3.0 | 6.0 | 0.00 | 0.00 | 0.00 | 53 | 1015.4 |
| 20260905110704 | 56 | 317 | 4.0 | 6.0 | 0.00 | 0.00 | 0.00 | 53 | 1015.5 |
| 20260905110204 | 56 | 317 | 4.0 | 6.0 | 0.00 | 0.00 | 0.00 | 54 | 1015.5 |
| 20260905105704 | 56 | 317 | 4.0 | 6.0 | 0.00 | 0.00 | 0.00 | 54 | 1015.4 |
| 20260905105205 | 56 | 317 | 4.0 | 5.0 | 0.00 | 0.00 | 0.00 | 53 | 1015.4 |
| 20260905104704 | 57 | 317 | 4.0 | 5.0 | 0.00 | 0.00 | 0.00 | 53 | 1015.5 |
| 20260905104204 | 57 | 317 | 3.0 | 5.0 | 0.00 | 0.00 | 0.00 | 54 | 1015.4 |
| 20260905102705 | 57 | 317 | 3.0 | 4.0 | 0.00 | 0.00 | 0.00 | 53 | 1015.4 |
| 20260905102204 | 57 | 317 | 3.0 | 4.0 | 0.00 | 0.00 | 0.00 | 53 | 1015.4 |
| 20260905101704 | 58 | 317 | 2.0 | 3.0 | 0.00 | 0.00 | 0.00 | 51 | 1015.4 |
| 20260905100704 | 59 | 317 | 1.0 | 2.0 | 0.00 | 0.00 | 0.00 | 50 | 1015.4 |
| 20260905100204 | 59 | 317 | 1.0 | 3.0 | 0.00 | 0.00 | 0.00 | 49 | 1015.4 |
| 20260905095704 | 60 | 317 | 0.0 | 4.0 | 0.00 | 0.00 | 0.00 | 48 | 1015.4 |
| 20260905095204 | 60 | 317 | 1.0 | 4.0 | 0.00 | 0.00 | 0.00 | 48 | 1015.4 |
| 20260905094704 | 61 | 317 | 2.0 | 4.0 | 0.00 | 0.00 | 0.00 | 47 | 1015.4 |
| 20260905094203 | 61 | 317 | 3.0 | 5.0 | 0.00 | 0.00 | 0.00 | 47 | 1015.4 |
| 20260905093704 | 61 | 317 | 3.0 | 6.0 | 0.00 | 0.00 | 0.00 | 48 | 1015.4 |
| 20260905093204 | 60 | 317 | 4.0 | 6.0 | 0.00 | 0.00 | 0.00 | 49 | 1015.3 |
| 20260905092704 | 60 | 317 | 4.0 | 6.0 | 0.00 | 0.00 | 0.00 | 51 | 1015.3 |
| 20260905092204 | 59 | 317 | 4.0 | 6.0 | 0.00 | 0.00 | 0.00 | 53 | 1015.3 |
| 20260905091204 | 58 | 317 | 4.0 | 5.0 | 0.00 | 0.00 | 0.00 | 55 | 1015.2 |
| 20260905090704 | 57 | 316 | 4.0 | 6.0 | 0.00 | 0.00 | 0.00 | 56 | 1015.2 |
| 20260905090204 | 57 | 316 | 4.0 | 6.0 | 0.00 | 0.00 | 0.00 | 56 | 1015.3 |
| 20260905085704 | 58 | 316 | 4.0 | 5.0 | 0.00 | 0.00 | 0.00 | 56 | 1015.4 |
| 20260905085204 | 57 | 316 | 4.0 | 8.0 | 0.00 | 0.00 | 0.00 | 56 | 1015.4 |
| 20260905084205 | 57 | 316 | 5.0 | 9.0 | 0.00 | 0.00 | 0.00 | 56 | 1015.5 |
| 20260905083704 | 56 | 316 | 5.0 | 8.0 | 0.00 | 0.00 | 0.00 | 57 | 1015.5 |
| 20260905083204 | 56 | 258 | 3.0 | 5.0 | 0.00 | 0.00 | 0.00 | 56 | 1015.5 |
| 20260905082204 | 56 | 250 | 3.0 | 5.0 | 0.00 | 0.00 | 0.00 | 56 | 1015.6 |
| 20260905081704 | 56 | 250 | 3.0 | 5.0 | 0.00 | 0.00 | 0.00 | 56 | 1015.7 |
| 20260905081205 | 56 | 145 | 2.0 | 4.0 | 0.00 | 0.00 | 0.00 | 56 | 1015.7 |
| 20260905080704 | 56 | 145 | 2.0 | 4.0 | 0.00 | 0.00 | 0.00 | 56 | 1015.6 |
| 20260905075704 | 57 | 145 | 3.0 | 5.0 | 0.00 | 0.00 | 0.00 | 57 | 1015.6 |
| 20260905075204 | 57 | 145 | 3.0 | 5.0 | 0.00 | 0.00 | 0.00 | 57 | 1015.7 |
| 20260905074704 | 57 | 145 | 3.0 | 5.0 | 0.00 | 0.00 | 0.00 | 56 | 1015.7 |
| 20260905074205 | 58 | 145 | 4.0 | 5.0 | 0.00 | 0.00 | 0.00 | 55 | 1015.7 |
| 20260905073204 | 58 | 145 | 4.0 | 5.0 | 0.00 | 0.00 | 0.00 | 54 | 1015.7 |
| 20260905072206 | 59 | 145 | 3.0 | 4.0 | 0.00 | 0.00 | 0.00 | 51 | 1015.7 |
| 20260905071704 | 59 | 145 | 3.0 | 4.0 | 0.00 | 0.00 | 0.00 | 50 | 1015.7 |
| 20260905071204 | 59 | 145 | 2.0 | 3.0 | 0.00 | 0.00 | 0.00 | 49 | 1015.7 |
| 20260905070704 | 60 | 145 | 2.0 | 3.0 | 0.00 | 0.00 | 0.00 | 49 | 1015.7 |
| 20260905070205 | 60 | 145 | 2.0 | 3.0 | 0.00 | 0.00 | 0.00 | 49 | 1015.6 |
| 20260905065704 | 60 | 145 | 2.0 | 4.0 | 0.00 | 0.00 | 0.00 | 48 | 1015.6 |
| 20260905065204 | 60 | 145 | 2.0 | 4.0 | 0.00 | 0.00 | 0.00 | 48 | 1015.7 |
| 20260905064704 | 60 | 145 | 3.0 | 4.0 | 0.00 | 0.00 | 0.00 | 48 | 1015.7 |
| 20260905064206 | 60 | 145 | 3.0 | 4.0 | 0.00 | 0.00 | 0.00 | 47 | 1015.7 |
| 20260905062704 | 62 | 145 | 2.0 | 3.0 | 0.00 | 0.00 | 0.00 | 45 | 1015.7 |
| 20260905062206 | 62 | 145 | 2.0 | 4.0 | 0.00 | 0.00 | 0.00 | 45 | 1015.7 |
| 20260905061704 | 62 | 145 | 2.0 | 4.0 | 0.00 | 0.00 | 0.00 | 45 | 1015.7 |
| 20260905061204 | 62 | 145 | 2.0 | 4.0 | 0.00 | 0.00 | 0.00 | 45 | 1015.6 |
| 20260905055705 | 64 | 145 | 1.0 | 2.0 | 0.00 | 0.00 | 0.00 | 44 | 1015.6 |
| 20260905055204 | 64 | 145 | 1.0 | 3.0 | 0.00 | 0.00 | 0.00 | 45 | 1015.6 |
| 20260905054704 | 64 | 145 | 1.0 | 3.0 | 0.00 | 0.00 | 0.00 | 45 | 1015.6 |
| 20260905054206 | 64 | 145 | 1.0 | 3.0 | 0.00 | 0.00 | 0.00 | 45 | 1015.6 |
| 20260905053704 | 64 | 145 | 1.0 | 2.0 | 0.00 | 0.00 | 0.00 | 46 | 1015.5 |
| 20260905053204 | 64 | 145 | 1.0 | 2.0 | 0.00 | 0.00 | 0.00 | 46 | 1015.5 |
| 20260905051705 | 64 | 145 | 2.0 | 3.0 | 0.00 | 0.00 | 0.00 | 47 | 1015.5 |
| 20260905051204 | 65 | 145 | 1.0 | 3.0 | 0.00 | 0.00 | 0.00 | 45 | 1015.5 |
| 20260905050704 | 65 | 145 | 1.0 | 2.0 | 0.00 | 0.00 | 0.00 | 45 | 1015.4 |
| 20260905050205 | 66 | 145 | 1.0 | 2.0 | 0.00 | 0.00 | 0.00 | 44 | 1015.4 |
| 20260905045704 | 66 | 145 | 0.0 | 3.0 | 0.00 | 0.00 | 0.00 | 44 | 1015.4 |
| 20260905044704 | 67 | 145 | 2.0 | 4.0 | 0.00 | 0.00 | 0.00 | 44 | 1015.3 |
| 20260905044205 | 67 | 145 | 2.0 | 4.0 | 0.00 | 0.00 | 0.00 | 44 | 1015.2 |
| 20260905043704 | 67 | 145 | 1.0 | 3.0 | 0.00 | 0.00 | 0.00 | 44 | 1015.1 |
| 20260905043204 | 68 | 145 | 1.0 | 3.0 | 0.00 | 0.00 | 0.00 | 43 | 1015.1 |
| 20260905042704 | 68 | 145 | 1.0 | 2.0 | 0.00 | 0.00 | 0.00 | 43 | 1015.0 |
| 20260905042206 | 69 | 145 | 1.0 | 2.0 | 0.00 | 0.00 | 0.00 | 42 | 1014.9 |
| 20260905041704 | 69 | 145 | 1.0 | 2.0 | 0.00 | 0.00 | 0.00 | 42 | 1014.9 |
| 20260905041204 | 69 | 145 | 1.0 | 2.0 | 0.00 | 0.00 | 0.00 | 41 | 1014.9 |
| 20260905040704 | 69 | 145 | 1.0 | 2.0 | 0.00 | 0.00 | 0.00 | 40 | 1014.9 |
| 20260905035704 | 70 | 145 | 1.0 | 2.0 | 0.00 | 0.00 | 0.00 | 39 | 1014.7 |
| 20260905035204 | 71 | 145 | 1.0 | 6.0 | 0.00 | 0.00 | 0.00 | 39 | 1014.7 |
| 20260905034704 | 71 | 145 | 1.0 | 11.0 | 0.00 | 0.00 | 0.00 | 38 | 1014.6 |
| 20260905034205 | 72 | 145 | 3.0 | 11.0 | 0.00 | 0.00 | 0.00 | 37 | 1014.6 |
| 20260905033704 | 72 | 145 | 6.0 | 12.0 | 0.00 | 0.00 | 0.00 | 35 | 1014.6 |
| 20260905033204 | 72 | 14 | 7.0 | 12.0 | 0.00 | 0.00 | 0.00 | 32 | 1014.5 |
| 20260905032704 | 72 | 333 | 7.0 | 13.0 | 0.00 | 0.00 | 0.00 | 31 | 1014.4 |
| 20260905032206 | 72 | 340 | 7.0 | 13.0 | 0.00 | 0.00 | 0.00 | 31 | 1014.3 |
| 20260905031704 | 72 | 25 | 8.0 | 13.0 | 0.00 | 0.00 | 0.00 | 31 | 1014.2 |
| 20260905031204 | 72 | 22 | 8.0 | 20.0 | 0.00 | 0.00 | 0.00 | 30 | 1014.1 |
| 20260905025704 | 73 | 313 | 14.0 | 22.0 | 0.00 | 0.00 | 0.00 | 34 | 1013.9 |
| 20260905025204 | 73 | 291 | 14.0 | 22.0 | 0.00 | 0.00 | 0.00 | 34 | 1013.5 |
| 20260905024206 | 73 | 328 | 15.0 | 22.0 | 0.00 | 0.00 | 0.00 | 32 | 1013.4 |
| 20260905023704 | 73 | 315 | 15.0 | 26.0 | 0.00 | 0.00 | 0.00 | 30 | 1013.4 |
| 20260905021704 | 74 | 296 | 16.0 | 25.0 | 0.00 | 0.00 | 0.00 | 29 | 1013.3 |
| 20260905021205 | 74 | 301 | 15.0 | 23.0 | 0.00 | 0.00 | 0.00 | 28 | 1013.3 |
| 20260905020206 | 75 | 311 | 15.0 | 24.0 | 0.00 | 0.00 | 0.00 | 27 | 1013.3 |
| 20260905015704 | 75 | 314 | 15.0 | 25.0 | 0.00 | 0.00 | 0.00 | 27 | 1013.3 |
| 20260905015205 | 75 | 299 | 16.0 | 25.0 | 0.00 | 0.00 | 0.00 | 27 | 1013.3 |
| 20260905014705 | 75 | 288 | 16.0 | 25.0 | 0.00 | 0.00 | 0.00 | 28 | 1013.3 |
| 20260905014204 | 76 | 303 | 16.0 | 24.0 | 0.00 | 0.00 | 0.00 | 28 | 1013.2 |
| 20260905013204 | 76 | 326 | 15.0 | 24.0 | 0.00 | 0.00 | 0.00 | 29 | 1013.2 |
| 20260905012705 | 76 | 327 | 14.0 | 23.0 | 0.00 | 0.00 | 0.00 | 30 | 1013.3 |
| 20260905011204 | 77 | 301 | 15.0 | 24.0 | 0.00 | 0.00 | 0.00 | 29 | 1013.2 |
| 20260905010704 | 77 | 316 | 16.0 | 24.0 | 0.00 | 0.00 | 0.00 | 30 | 1013.2 |
| 20260905010204 | 77 | 308 | 16.0 | 26.0 | 0.00 | 0.00 | 0.00 | 30 | 1013.2 |
| 20260905005704 | 78 | 309 | 16.0 | 26.0 | 0.00 | 0.00 | 0.00 | 30 | 1013.2 |
| 20260905005204 | 78 | 302 | 17.0 | 26.0 | 0.00 | 0.00 | 0.00 | 29 | 1013.1 |
| 20260905004704 | 78 | 331 | 16.0 | 26.0 | 0.00 | 0.00 | 0.00 | 29 | 1013.1 |
| 20260905004204 | 79 | 309 | 15.0 | 22.0 | 0.00 | 0.00 | 0.00 | 28 | 1013.2 |
| 20260905003704 | 79 | 322 | 15.0 | 25.0 | 0.00 | 0.00 | 0.00 | 28 | 1013.1 |
| 20260905002705 | 78 | 337 | 17.0 | 25.0 | 0.00 | 0.00 | 0.00 | 29 | 1013.1 |
| 20260905002204 | 78 | 319 | 18.0 | 25.0 | 0.00 | 0.00 | 0.00 | 29 | 1013.1 |
| 20260905001204 | 80 | 315 | 15.0 | 23.0 | 0.00 | 0.00 | 0.00 | 29 | 1013.1 |
| 20260905000704 | 80 | 312 | 14.0 | 21.0 | 0.00 | 0.00 | 0.00 | 29 | 1013.1 |
| 20260905000204 | 80 | 325 | 14.0 | 23.0 | 0.00 | 0.00 | 0.00 | 29 | 1013.1 |
| 20260904235205 | 80 | 298 | 15.0 | 25.0 | 0.00 | 0.00 | 0.00 | 29 | 1013.1 |
| 20260904234704 | 80 | 303 | 16.0 | 22.0 | 0.00 | 0.00 | 0.00 | 29 | 1013.1 |
| 20260904234206 | 80 | 294 | 15.0 | 22.0 | 0.00 | 0.00 | 0.00 | 29 | 1013.1 |
| 20260904233704 | 80 | 309 | 15.0 | 24.0 | 0.00 | 0.00 | 0.00 | 29 | 1013.1 |
| 20260904233204 | 80 | 294 | 16.0 | 24.0 | 0.00 | 0.00 | 0.00 | 30 | 1013.1 |
| 20260904232704 | 80 | 296 | 16.0 | 24.0 | 0.00 | 0.00 | 0.00 | 31 | 1013.1 |
| 20260904232206 | 81 | 296 | 16.0 | 22.0 | 0.00 | 0.00 | 0.00 | 30 | 1013.1 |
| 20260904231704 | 81 | 294 | 16.0 | 22.0 | 0.00 | 0.00 | 0.00 | 30 | 1013.1 |